ITF-2

Last updated on Jan. 4, 2019, 12:02 a.m. UTC

1 41932U 98067KU  19003.69298287  .08988731  12526-4  32153-3 0  9994
2 41932  51.6105   8.9412 0001311 269.7383  90.3495 16.44586236112635

Satellite is not in orbit.